N84AB KTPA-KJAX

Flight info

Callsign N84AB
Flight time N/A
Altitude 21000
Route BAYPO2 WILON TEBOW TEBOW2
Aircraft C750/M-SBDE3FGHRWXY/S

Departure

Time 2026-04-30 15:08
Airport Tampa International Airport (KTPA)

Arrival

Time N/A
Airport Jacksonville International Airport (KJAX)
Time Latitude Longitude Altitude Speed Heading
2026-04-30 14:37 27.97369 -82.52035 35 ft 0 kts 71°
2026-04-30 15:00 27.97361 -82.52061 35 ft 4 kts 66°
2026-04-30 15:00 27.97339 -82.52116 35 ft 4 kts 79°
2026-04-30 15:01 27.97337 -82.52132 35 ft 0 kts 92°
2026-04-30 15:04 27.97333 -82.52127 26 ft 2 kts 137°
2026-04-30 15:04 27.97177 -82.52130 35 ft 8 kts 128°
2026-04-30 15:05 27.97162 -82.51812 30 ft 16 kts 91°
2026-04-30 15:06 27.97154 -82.51535 27 ft 17 kts 92°
2026-04-30 15:06 27.97058 -82.51452 24 ft 12 kts 181°
2026-04-30 15:07 27.97025 -82.51512 24 ft 23 kts 269°
2026-04-30 15:07 27.97071 -82.53421 350 ft 177 kts 271°
2026-04-30 15:08 27.97108 -82.56519 1856 ft 196 kts 266°
2026-04-30 15:08 27.97564 -82.61000 2706 ft 226 kts 314°
2026-04-30 15:09 28.00474 -82.61736 4587 ft 230 kts
2026-04-30 15:09 28.03855 -82.60952 5620 ft 270 kts
2026-04-30 15:10 28.07686 -82.60161 7507 ft 279 kts
2026-04-30 15:11 28.15723 -82.58473 10823 ft 330 kts
2026-04-30 15:11 28.20520 -82.57604 11831 ft 352 kts 356°
2026-04-30 15:12 28.27948 -82.57831 14156 ft 364 kts 354°
2026-04-30 15:13 28.33303 -82.57998 14165 ft 408 kts 354°
2026-04-30 15:14 28.44141 -82.58275 17417 ft 381 kts 353°
2026-04-30 15:14 28.52230 -82.58471 19638 ft 393 kts 353°
2026-04-30 15:16 28.66871 -82.58866 20951 ft 454 kts 352°
2026-04-30 15:17 28.79498 -82.60568 20951 ft 459 kts 348°
2026-04-30 15:18 28.95315 -82.62791 20974 ft 459 kts 348°
2026-04-30 15:19 29.04850 -82.64127 20985 ft 459 kts 348°